Location: Boiro
(42.6475°N, 8.8834°W)
Time: 14:38:19
(UTC+02:00)

Explorer 7 - Pass Details

Date: 26 June 2022
Orbit: 482 x 668 km, 50.3° (Epoch: 15 August)

Event Time Altitude Azimuth Distance (km) Brightness Sun altitude
Exits shadow 04:28:10 11° 274° (W) 1,957 9.4 -19.3°
Maximum altitude 04:32:22 40° 343° (NNW) 933 8.3 -19.0°
Drops below altitude 10° 04:36:39 10° 54° (NE) 1,966 10.6 -18.6°
Sets 04:39:00 0° 62° (ENE) 2,838 11.4 -18.4°
